Kosmos-911

operational
NORAD ID: 10019 Int'l Des: 1977-039 Owner: VTS Country: SU
LEOCIRCULARPOLAR

Kosmos-911について

説明を読み込み中...

リアルタイム位置

3D地球を読み込み中...

次回通過

高度履歴

Altitude vs Time

uPlot chart will show altitude changes over time

軌道要素

1 10019U 77039A 26062.52347413 .00000049 00000-0 35241-4 0 9994
2 10019 82.9474 215.0865 0023286 278.8118 148.6093 13.75418938447331
Epoch: Mar 3, 2026 • Age: 24 hours

現在のステータス

高度 981.6 km
速度 7.37 km/s
衛星直下点 -34.26°S, 43.78°E
打ち上げ日 May 25, 1977
運用期間 48.7 years
タイプ other

技術仕様

分類 Payload
質量 800.00 kg
乾燥質量 800.00 kg
総質量 800.00 kg
長さ 3.00 m
直径 2.00 m
スパン 17.00 m
形状 Cyl + Ant
製造者 NPOPM
バスタイプ KAUR-1 11F621
フェーズステータス In Orbit
所有者/国 VTS/SU

大規模コンステレーション

Loading constellations...